User: anonymous   Login
Location: Unspecified
(0.0000°N, 0.0000°E)
Time: 00:56:16
(UTC+00:00)
Language:

STARLINK-35353 - Orbit

View from above orbital plane
View from above orbital plane
View from above satellite
View from above satellite

Ground track
Ground track

The orbit is defined by the following mean orbital elements,

1 65669U          26145.57027323 +.00000000 +00000-0 +10325-3 0 00006
2 65669  97.4480 189.5248 0002328 119.4619 240.6840 15.05656480    03
Epoch (UTC): 25 May 2026 13:41:11
Eccentricity: 0.0002328
inclination: 97.4480°
perigee height: 548 km
apogee height: 551 km
right ascension of ascending node: 189.5248°
argument of perigee: 119.4619°
revolutions per day: 15.05656480
mean anomaly at epoch: 240.6840°

The dashed part of the orbit path shows where the satellite is in the earth's shadow,  

DLR